This demonstration page uses our WeatherBlox Daily Observations layout. Learn more.

Left ArrowRight Arrow

44.8408, -93.29828

Hourly Observations for September 5, 2022

Temp ( °F °C ) Dew Point ( °F °C ) Humidity (%) Winds ( mph kmh ) Pressure ( in mb ) Visibility ( mi km ) Precip ( " mm )
12:53 am 00:53 Clear 62 16.7 54 12.2 75 75 SE 7 11 30.12 1020 10 16 0.00 0.00
1:53 am 01:53 Clear 60 15.6 54 12.2 80 80 SE 5 7 30.11 1020 10 16 0.00 0.00
2:53 am 02:53 Clear 59 15 54 12.2 83 83 SE 3 6 30.11 1020 10 16 0.00 0.00
3:53 am 03:53 Clear 58 14.4 54 12.2 87 87 ESE 6 9 30.11 1020 10 16 0.00 0.00
4:53 am 04:53 Mostly Clear 58 14.4 55 12.8 90 90 SE 3 6 30.11 1020 10 16 0.00 0.00
5:53 am 05:53 Mostly Clear 58 14.4 55 12.8 90 90 SE 8 13 30.12 1020 10 16 0.00 0.00
6:53 am 06:53 Mostly Cloudy 58 14.4 55 12.8 90 90 SE 3 6 30.13 1020 10 16 0.00 0.00
7:53 am 07:53 Partly Cloudy 60 15.6 56 13.3 86 86 SE 7 11 30.14 1021 10 16 0.00 0.00
8:44 am 08:44 Mostly Cloudy 61 16.1 56 13.3 83 83 ESE 8 13 30.13 1020 10 16 0.00 0.00
8:53 am 08:53 Mostly Cloudy 62 16.7 57 13.9 84 84 SE 8 13 30.13 1020 10 16 0.00 0.00
9:15 am 09:15 Mostly Cloudy 64 17.8 57 13.9 78 78 SE 9 15 30.12 1020 10 16 0.00 0.00
9:41 am 09:41 Mostly Cloudy 65 18.3 58 14.4 78 78 SE 9 15 30.12 1020 10 16 0.00 0.00
9:53 am 09:53 Mostly Cloudy 65 18.3 58 14.4 78 78 SE 8 13 30.13 1020 10 16 0.00 0.00
10:04 am 10:04 Mostly Cloudy 67 19.4 58 14.4 73 73 SE 8 13 30.12 1020 10 16 0.00 0.00
10:53 am 10:53 Mostly Cloudy 68 20 58 14.4 70 70 SSE 7 11 30.14 1021 10 16 0.00 0.00
11:53 am 11:53 Mostly Cloudy 69 20.6 59 15 70 70 VRB 5 7 30.13 1020 10 16 0.00 0.00
12:33 pm 12:33 Cloudy 71 21.7 58 14.4 63 63 SE 6 9 30.10 1019 10 16 0.00 0.00
12:53 pm 12:53 Cloudy 72 22.2 58 14.4 61 61 VRB 6 9 30.11 1020 10 16 0.00 0.00
1:53 pm 13:53 Mostly Cloudy 75 23.9 57 13.9 54 54 SSE 12 19 30.10 1019 10 16 0.00 0.00
2:53 pm 14:53 Mostly Cloudy 76 24.4 56 13.3 50 50 SE 13 20 30.08 1019 10 16 0.00 0.00
3:53 pm 15:53 Partly Cloudy 75 23.9 57 13.9 54 54 SE 9 15 30.07 1018 10 16 0.00 0.00
4:53 pm 16:53 Partly Cloudy 75 23.9 56 13.3 51 51 ESE 8 13 30.07 1018 10 16 0.00 0.00
5:53 pm 17:53 Mostly Cloudy 74 23.3 57 13.9 56 56 SE 10 17 30.06 1018 10 16 0.00 0.00
6:53 pm 18:53 Partly Cloudy 73 22.8 57 13.9 57 57 SE 12 19 30.05 1018 10 16 0.00 0.00
7:53 pm 19:53 Mostly Clear 71 21.7 57 13.9 61 61 SE 7 11 30.06 1018 10 16 0.00 0.00
8:53 pm 20:53 Mostly Clear 69 20.6 57 13.9 65 65 SE 8 13 30.07 1018 10 16 0.00 0.00
9:53 pm 21:53 Clear 67 19.4 54 12.2 63 63 SE 9 15 30.07 1018 10 16 0.00 0.00
10:53 pm 22:53 Clear 65 18.3 54 12.2 68 68 SE 8 13 30.07 1018 10 16 0.00 0.00
11:53 pm 23:53 Clear 64 17.8 54 12.2 70 70 SE 7 11 30.08 1019 10 16 0.00 0.00

Powered by AerisWeather